Regional Weather Roundup
Issued by NWS

Home | Current Version | Previous Version | Graphics & Text | Print | Product List | Glossary On
Versions: 1 2 3 4 5 6 7 8 9 10 11 12 13 14 15 16 17 18 19 20 21 22 23 24 25 26 27 28 29 30 31 32 33 34 35 36 37 38 39 40 41 42 43 44 45 46 47 48 49 50
000
ASUS43 KLMK 230002
RWRKY
KENTUCKY REGIONAL WEATHER ROUNDUP
NATIONAL WEATHER SERVICE LOUISVILLE KY
800 PM EDT SAT APR 22 2017

NOTE "FAIR" INDICATES FEW OR NO CLOUDS BELOW 12,000 FEET
WITH NO SIGNIFICANT WEATHER AND/OR OBSTRUCTIONS TO VISIBILITY.

KYZ001>023-026-027-061>063-070>075-230100-
WESTERN AND SOUTH CENTRAL KENTUCKY

CITY           SKY/WX    TMP DP  RH WIND       PRES   REMARKS
PADUCAH        CLOUDY    55  46  71 NE14      29.95R
HENDERSON      CLOUDY    54  44  69 NE13      29.98R
OWENSBORO      MOCLDY    55  44  66 NE10      29.97R
HOPKINSVILLE   CLOUDY    54  50  87 NE13      29.91R
BOWLING GREEN  CLOUDY    54  50  86 NE13      29.93R
GLASGOW        NOT AVBL
$$

KYZ024-025-028>034-038-045-046-053-230100-
NORTH CENTRAL KENTUCKY

CITY           SKY/WX    TMP DP  RH WIND       PRES   REMARKS
LOUISVILLE/SDF MOCLDY    54  41  61 NE10      29.99R
LOUISVILLE/LOU CLOUDY    54  40  59 NE8       30.00R
FORT KNOX      CLOUDY    51  43  74 N13       29.95S
$$

KYZ035>037-039>044-047>052-055>060-089>105-230100-
NORTHEAST KENTUCKY

CITY           SKY/WX    TMP DP  RH WIND       PRES   REMARKS
LEXINGTON      CLOUDY    51  42  71 NE12      29.99R
COVINGTON      PTCLDY    54  35  48 NE14      30.01R
FRANKFORT      CLEAR     53  40  61 NE12      29.98R
$$

KYZ054-064>069-076>088-106>120-230100-
SOUTHEAST KENTUCKY

CITY           SKY/WX    TMP DP  RH WIND       PRES   REMARKS
JACKSON        CLOUDY    47  46  97 VRB3      29.99R FOG
LONDON         LGT RAIN  49  46  90 N9        29.96S
SOMERSET       NOT AVBL
MIDDLESBORO    RAIN      52  51  96 N5        29.95R
MONTICELLO     CLOUDY    50  48  93 N7        29.95S
$$





USA.gov is the U.S. government's official web portal to all federal, state and local government web resources and services.